Wind_Speed
120 125 130 131 132 136 133 132 131 124 120 116 114 110 107 102 98 86 76 76 77 71 65 63 60 58 56 56 58 58 56 54 53 57 60 62 65 67 67 69 70 70 69
110 111 113 116 119 114 117 120 118 117 108 107 114 116 110 106 100 93 84 77 77 75 70 66 64 60 60 61 62 61 60 56 54 58 63 67 70 72 73 78 78 76 72
98 98 99 102 102 101 100 100 102 99 98 96 100 112 116 109 106 97 87 78 77 75 71 72 68 64 64 63 63 62 61 59 56 60 66 69 73 75 79 81 80 77 75
91 91 91 92 92 90 91 90 91 88 85 85 93 96 107 110 108 104 92 81 79 75 72 71 71 69 66 65 62 61 59 60 60 63 68 72 75 80 83 83 80 77 77
82 83 85 87 87 85 85 83 81 78 79 76 85 90 94 104 102 107 93 87 84 78 73 71 68 66 65 63 61 60 60 61 63 68 70 74 78 83 84 85 78 78 83
71 74 75 75 76 77 80 79 79 76 75 72 75 79 84 89 95 107 93 91 89 81 73 70 67 66 64 63 62 62 61 62 68 70 73 76 81 83 86 80 78 80 74
67 65 64 66 62 64 65 68 73 73 73 74 67 73 78 84 95 96 91 88 92 84 77 71 67 65 65 65 62 60 62 66 70 71 74 77 81 85 80 79 78 72 75
64 59 57 56 52 52 54 59 61 65 68 67 64 66 74 83 93 88 84 87 89 82 79 73 69 68 67 65 62 61 64 68 70 70 74 78 81 79 75 74 68 73 72
55 49 48 46 43 43 46 50 53 58 61 61 62 65 70 78 83 81 84 87 82 80 76 73 68 65 65 64 64 64 68 69 69 72 75 76 74 72 71 63 68 63 58
44 40 38 37 37 36 40 44 49 52 55 55 60 64 70 74 75 78 83 80 78 75 72 72 69 66 67 66 66 68 69 67 69 72 71 70 67 68 58 60 56 51 41
35 35 33 33 32 33 38 41 44 45 51 56 59 64 67 68 72 73 71 70 68 67 70 71 70 68 67 67 69 68 67 66 67 65 65 62 64 55 56 51 46 33 24
29 30 26 28 27 31 36 38 41 46 55 59 61 63 64 65 64 60 58 60 62 66 66 68 68 68 66 66 66 64 62 62 59 58 56 58 54 51 46 39 27 25 17
23 27 22 24 25 29 34 38 40 48 57 61 61 62 60 62 59 55 54 55 59 61 63 63 64 63 60 59 58 56 53 52 51 49 50 49 46 45 35 24 24 10 3
22 22 17 22 24 27 33 39 46 52 58 60 60 60 57 55 54 51 48 49 53 55 57 56 55 55 51 49 50 46 46 45 43 43 41 38 40 35 24 21 12 16 27
23 17 16 21 24 28 36 43 49 54 60 60 61 60 54 54 53 51 51 52 51 51 50 50 50 47 43 42 41 41 40 38 38 35 34 31 32 24 15 19 18 40 51
20 15 16 23 26 31 42 50 57 60 56 60 61 59 58 57 53 51 49 49 51 49 47 46 44 41 37 38 38 36 35 35 31 28 28 26 20 8 7 12 20 49 56
16 15 20 24 29 40 49 55 59 60 63 62 59 60 58 55 53 52 52 54 50 47 45 41 39 36 35 36 33 32 32 30 25 25 23 20 11 14 11 9 13 47 56
14 17 22 27 37 48 53 58 61 62 61 58 57 58 54 52 52 54 55 51 46 45 40 38 37 35 34 34 32 30 29 26 21 25 18 15 12 32 28 24 22 43 56
11 19 25 32 44 51 56 61 67 61 59 57 55 55 52 51 50 49 48 46 45 41 39 37 36 34 33 32 30 27 27 22 18 24 16 12 16 39 41 39 34 42 50
15 18 25 38 47 51 54 60 60 57 56 60 53 43 41 44 46 48 49 47 45 41 38 37 35 32 30 30 29 27 25 19 17 22 17 11 25 42 49 46 42 42 46
25 27 35 41 48 55 63 65 66 64 59 58 57 59 50 48 50 49 45 43 42 40 38 36 31 30 29 29 29 27 25 18 18 23 21 14 33 51 54 48 48 47 52
31 37 43 49 53 59 66 68 67 61 57 53 49 48 46 46 45 44 44 43 39 36 34 30 29 29 28 29 30 28 24 18 17 26 24 18 35 58 62 62 57 53 56
34 45 53 60 64 71 73 70 64 58 56 52 45 45 44 44 45 44 43 40 36 33 31 31 30 30 29 29 30 29 26 21 20 28 28 24 35 56 67 65 66 62 59
38 47 62 70 70 68 65 57 58 57 50 47 46 47 41 43 42 41 37 33 31 31 31 31 29 29 30 30 30 31 28 26 23 26 30 29 34 60 66 70 73 68 65
48 61 64 67 67 63 61 57 51 45 48 47 48 42 39 34 33 32 32 31 31 31 31 29 29 32 30 30 31 31 31 27 25 30 35 37 38 60 67 78 70 78 75
48 56 59 61 59 62 59 54 51 44 39 37 38 37 34 30 30 30 30 29 31 31 30 30 30 30 31 34 33 34 34 31 28 31 35 44 44 56 75 78 84 74 81
Wind_Direction
269 268 267 265 263 263 263 264 265 262 258 257 257 255 258 261 263 260 255 255 257 259 259 259 259 263 268 273 274 274 275 280 285 289 293 295 297 299 300 302 300 298 294
272 270 270 269 269 267 264 263 261 260 257 255 253 254 252 254 257 258 257 254 255 256 256 257 258 261 266 272 274 273 274 278 283 289 292 295 297 300 302 303 302 300 295
275 273 269 267 267 265 263 261 260 258 254 251 248 248 249 249 251 252 252 252 253 254 254 255 256 261 267 270 272 272 274 280 283 288 292 294 296 298 300 303 302 298 294
277 274 270 267 264 262 260 257 255 254 251 245 241 237 243 245 246 247 246 247 250 251 253 256 258 262 266 267 268 269 273 280 286 290 292 294 296 297 301 303 300 297 297
277 273 269 267 264 261 257 255 252 249 247 241 239 232 234 238 240 244 241 242 246 248 250 254 257 260 263 263 266 269 275 282 287 288 291 294 295 298 302 301 300 298 294
277 272 269 265 262 260 257 253 250 246 242 239 236 232 229 230 232 238 237 238 242 245 248 251 253 257 258 261 265 270 276 282 284 288 290 293 297 300 300 300 301 298 300
274 271 269 267 263 259 255 251 246 241 238 235 230 227 224 224 226 229 231 233 238 239 242 247 251 254 256 260 264 271 277 280 283 287 289 294 298 300 302 302 301 302 298
276 274 270 267 261 256 250 245 241 235 231 230 221 219 218 220 225 224 224 227 232 235 238 243 248 250 255 259 264 271 276 278 281 286 291 295 298 300 301 302 304 300 303
278 277 273 270 261 251 244 238 234 229 224 221 213 211 213 216 220 219 221 224 227 231 234 238 243 247 253 260 264 270 275 278 283 287 292 296 299 300 303 306 302 306 304
285 282 277 267 259 247 237 231 227 223 215 211 208 206 209 213 215 217 219 220 223 227 232 235 241 247 255 259 264 270 272 277 283 289 293 295 299 301 308 306 311 312 308
287 284 277 266 256 245 232 223 219 213 205 201 201 200 204 206 210 215 216 217 220 225 231 234 240 247 253 257 264 267 270 277 285 289 292 298 302 309 311 316 319 316 318
289 281 275 262 251 237 226 216 208 199 194 192 193 196 197 201 205 207 210 214 218 224 229 233 238 245 251 256 260 263 270 278 283 287 294 300 306 313 316 324 329 337 327
283 271 268 251 236 226 216 204 198 190 187 189 190 193 194 197 198 201 203 207 214 220 225 231 237 244 249 252 256 262 271 275 280 287 296 303 311 316 325 343 6 299 88
268 260 249 235 222 211 207 195 188 184 184 182 184 190 189 189 191 191 196 204 212 217 223 229 234 239 242 247 254 261 265 271 279 290 300 304 315 318 343 11 37 138 121
258 244 224 219 207 200 193 184 180 178 180 181 183 184 180 181 181 186 192 198 205 212 217 224 230 235 240 246 252 257 262 271 281 295 297 309 313 315 359 22 120 122 125
251 229 205 201 193 192 179 172 171 171 173 175 177 177 176 180 184 187 191 199 205 211 216 222 227 233 237 244 248 253 263 272 286 294 295 308 304 303 30 34 142 125 123
249 219 192 187 181 179 171 171 172 169 173 172 175 177 176 181 185 191 197 204 206 211 217 222 227 230 235 239 245 253 263 274 287 291 293 302 275 177 174 204 180 138 133
228 202 183 172 175 171 169 169 169 169 167 170 174 171 174 181 189 193 200 202 206 211 214 219 224 226 229 236 244 252 262 273 285 287 287 288 235 173 181 179 177 154 147
196 180 174 169 171 167 164 167 165 164 165 169 171 173 173 181 186 193 198 201 207 211 213 217 219 223 228 236 244 252 261 270 279 277 275 264 215 177 185 185 181 176 162
146 158 174 167 166 160 163 162 156 161 165 165 158 164 177 182 187 193 198 202 206 208 211 214 218 223 230 238 244 251 257 265 266 260 260 230 197 183 182 190 184 178 177
140 153 158 159 162 159 159 158 160 164 167 165 170 170 180 186 190 196 196 202 205 206 211 215 216 223 231 238 244 250 256 258 250 239 249 216 189 188 184 190 189 184 186
146 150 155 159 162 161 157 156 158 160 166 170 176 181 183 187 191 194 198 201 203 205 209 212 217 224 229 237 246 250 256 252 226 229 240 215 190 186 191 192 196 198 188
145 150 153 157 157 151 150 152 152 159 160 161 169 174 179 186 190 193 197 199 202 205 208 214 219 225 232 240 247 251 251 249 234 222 233 214 199 192 196 195 199 200 203
142 148 152 152 148 145 143 146 153 156 161 166 176 179 181 184 190 192 197 201 204 208 214 220 224 230 238 242 249 253 254 245 241 217 224 223 205 196 199 201 199 201 204
141 146 148 148 146 145 149 148 155 158 170 173 175 185 183 183 189 195 195 200 207 215 222 223 228 236 242 245 252 254 251 250 242 226 218 221 209 202 199 201 209 203 206
143 144 148 148 150 156 156 161 164 168 174 181 181 185 190 197 199 198 201 207 213 218 224 231 237 242 248 251 251 254 254 251 238 210 209 216 212 205 206 203 209 211 212
Height
10460 10452 10448 10452 10458 10461 10469 10474 10483 10504 10531 10550 10561 10572 10582 10590 10602 10620 10635 10641 10645 10650 10656 10660 10663 10666 10667 10666 10666 10666 10665 10665 10661 10653 10649 10646 10642 10638 10634 10629 10623 10616 10609
10411 10411 10408 10406 10406 10419 10427 10436 10443 10453 10480 10511 10531 10538 10555 10563 10575 10591 10606 10617 10623 10630 10637 10641 10645 10649 10650 10651 10650 10650 10650 10651 10649 10644 10636 10630 10624 10618 10613 10605 10597 10590 10583
10368 10370 10371 10368 10368 10376 10383 10394 10401 10418 10440 10460 10484 10504 10518 10537 10545 10562 10579 10594 10600 10608 10617 10622 10627 10632 10633 10635 10634 10634 10635 10634 10635 10632 10624 10617 10610 10603 10595 10587 10577 10566 10558
10336 10333 10332 10329 10334 10342 10347 10357 10368 10384 10401 10423 10439 10463 10485 10505 10515 10527 10554 10571 10578 10586 10596 10603 10609 10613 10617 10618 10618 10619 10620 10619 10618 10614 10608 10602 10594 10583 10577 10568 10555 10543 10536
10302 10297 10295 10296 10300 10309 10315 10327 10340 10355 10368 10387 10403 10426 10448 10470 10487 10494 10527 10545 10554 10566 10577 10585 10592 10596 10599 10600 10602 10604 10605 10605 10601 10597 10592 10586 10576 10567 10556 10542 10536 10527 10510
10268 10263 10262 10266 10271 10277 10286 10300 10313 10328 10342 10359 10376 10398 10418 10440 10457 10466 10500 10519 10531 10546 10558 10568 10576 10580 10583 10584 10587 10590 10592 10590 10584 10581 10576 10569 10558 10549 10536 10525 10514 10501 10492
10240 10237 10237 10239 10247 10252 10262 10272 10282 10301 10317 10333 10354 10372 10392 10413 10426 10445 10473 10497 10506 10525 10539 10551 10559 10564 10566 10569 10573 10576 10576 10573 10570 10567 10560 10553 10542 10528 10518 10506 10493 10483 10468
10214 10214 10214 10219 10226 10231 10239 10248 10260 10275 10292 10312 10333 10351 10370 10390 10402 10428 10452 10469 10486 10507 10522 10535 10543 10547 10551 10555 10560 10562 10560 10558 10556 10553 10548 10538 10525 10514 10502 10493 10479 10463 10446
10194 10195 10196 10201 10206 10213 10220 10229 10241 10255 10275 10295 10315 10333 10351 10368 10388 10412 10432 10448 10472 10489 10506 10518 10526 10531 10536 10542 10546 10547 10545 10543 10542 10538 10532 10522 10511 10497 10489 10480 10462 10448 10432
10179 10179 10181 10185 10190 10198 10206 10215 10225 10240 10261 10283 10301 10318 10335 10355 10378 10396 10412 10436 10457 10475 10490 10500 10509 10517 10524 10528 10531 10532 10531 10532 10530 10526 10518 10508 10499 10487 10478 10462 10448 10432 10419
10165 10166 10168 10170 10177 10185 10192 10202 10214 10231 10251 10269 10288 10306 10324 10345 10363 10381 10405 10425 10444 10461 10473 10484 10494 10504 10511 10516 10516 10517 10519 10521 10519 10513 10504 10497 10485 10478 10465 10450 10436 10424 10411
10154 10155 10157 10159 10168 10174 10183 10192 10207 10222 10240 10259 10279 10297 10316 10336 10355 10376 10396 10415 10433 10445 10459 10470 10482 10489 10499 10503 10503 10506 10509 10510 10508 10502 10496 10486 10478 10469 10456 10445 10432 10418 10411
10142 10143 10148 10151 10159 10166 10176 10186 10200 10216 10233 10252 10272 10290 10310 10330 10350 10370 10388 10404 10419 10433 10445 10458 10467 10477 10486 10490 10491 10495 10498 10499 10496 10494 10488 10482 10474 10462 10453 10444 10434 10426 10415
10131 10134 10141 10144 10151 10161 10170 10182 10196 10212 10230 10248 10267 10286 10307 10327 10345 10362 10379 10395 10408 10422 10434 10446 10455 10463 10472 10477 10480 10485 10487 10488 10488 10486 10482 10475 10469 10459 10455 10447 10444 10433 10427
10123 10126 10133 10139 10145 10156 10166 10179 10194 10210 10227 10247 10265 10284 10306 10324 10339 10352 10369 10384 10398 10412 10423 10433 10442 10451 10461 10465 10470 10474 10476 10478 10480 10478 10476 10472 10465 10460 10460 10455 10454 10444 10439
10117 10122 10129 10134 10141 10153 10166 10179 10194 10209 10228 10246 10262 10281 10297 10314 10333 10350 10366 10379 10390 10402 10413 10423 10432 10442 10450 10454 10460 10464 10467 10470 10472 10471 10470 10467 10463 10462 10464 10466 10469 10458 10458
10114 10118 10126 10132 10139 10153 10165 10179 10194 10210 10229 10245 10260 10277 10297 10316 10333 10346 10358 10370 10383 10395 10405 10416 10424 10433 10440 10445 10450 10455 10459 10461 10464 10464 10466 10463 10462 10462 10467 10472 10479 10472 10471
10110 10117 10124 10133 10142 10153 10165 10181 10197 10213 10228 10245 10262 10280 10297 10313 10326 10338 10351 10365 10378 10388 10400 10408 10416 10425 10432 10436 10442 10447 10450 10454 10457 10457 10459 10459 10459 10461 10469 10477 10482 10482 10481
10110 10116 10123 10133 10143 10155 10168 10183 10200 10216 10232 10248 10266 10283 10296 10310 10323 10335 10348 10361 10372 10384 10393 10402 10410 10418 10424 10428 10434 10439 10443 10448 10451 10450 10451 10455 10457 10459 10467 10477 10484 10489 10489
10112 10119 10126 10135 10146 10159 10174 10190 10206 10223 10238 10253 10267 10282 10297 10308 10318 10331 10343 10356 10366 10377 10386 10394 10403 10410 10416 10420 10425 10430 10435 10442 10444 10443 10444 10450 10454 10459 10466 10475 10484 10492 10495
10117 10124 10134 10144 10153 10165 10180 10197 10213 10227 10243 10256 10269 10280 10292 10304 10317 10329 10341 10351 10361 10371 10379 10387 10395 10401 10408 10412 10417 10423 10428 10434 10436 10436 10437 10444 10450 10457 10466 10474 10482 10492 10500
10124 10130 10139 10151 10163 10176 10191 10205 10220 10236 10249 10262 10275 10286 10298 10308 10317 10328 10337 10347 10357 10365 10372 10380 10387 10394 10400 10404 10408 10416 10422 10427 10430 10430 10431 10438 10444 10452 10462 10472 10480 10489 10498
10134 10140 10150 10159 10174 10188 10199 10215 10229 10244 10256 10267 10278 10287 10297 10306 10316 10325 10333 10342 10351 10359 10366 10373 10380 10387 10393 10398 10401 10408 10413 10418 10421 10423 10425 10432 10439 10444 10453 10461 10472 10481 10490
10146 10154 10163 10174 10184 10197 10211 10225 10237 10248 10259 10269 10279 10288 10296 10306 10315 10323 10331 10339 10347 10355 10361 10368 10375 10380 10385 10391 10394 10398 10404 10408 10412 10416 10419 10424 10431 10438 10443 10452 10463 10473 10482
10161 10168 10174 10182 10192 10204 10217 10230 10242 10253 10262 10270 10278 10288 10298 10307 10313 10320 10329 10336 10342 10349 10355 10362 10368 10372 10378 10382 10386 10388 10391 10397 10402 10405 10409 10413 10421 10428 10434 10445 10452 10464 10472
10175 10184 10190 10198 10209 10220 10229 10240 10248 10257 10264 10273 10282 10290 10298 10305 10312 10319 10325 10332 10337 10342 10349 10355 10359 10364 10367 10370 10374 10377 10380 10385 10391 10395 10398 10403 10409 10417 10426 10432 10438 10447 10459